Time,TemperatureF,DewpointF,PressureIn,WindDirection,WindDirectionDegrees,WindSpeedMPH,WindSpeedGustMPH,Humidity,HourlyPrecipIn,Conditions,Clouds,dailyrainin,SoftwareType,DateUTC
2013-01-23 06:50:00,14.8,4.8,30.25,WSW,243,4.0,4.0,64,0.00,CLR,,0.00,WeatherDisplay:10.37,2013-01-23 12:50:00,
2013-01-23 06:55:00,14.8,4.8,30.25,WSW,244,1.2,1.2,64,0.00,CLR,,0.00,WeatherDisplay:10.37,2013-01-23 12:55:00,
2013-01-23 07:01:00,14.8,4.8,30.25,WSW,243,3.5,3.5,64,0.00,CLR,,0.00,WeatherDisplay:10.37,2013-01-23 13:01:00,
2013-01-23 07:06:00,14.8,4.8,30.24,WSW,240,5.8,5.8,64,0.00,CLR,,0.00,WeatherDisplay:10.37,2013-01-23 13:06:00,
2013-01-23 07:11:00,14.8,4.8,30.24,WSW,240,5.0,5.0,64,0.00,CLR,,0.00,WeatherDisplay:10.37,2013-01-23 13:11:00,
2013-01-23 07:16:00,14.7,4.7,30.24,WSW,239,6.0,6.0,64,0.00,CLR,,0.00,WeatherDisplay:10.37,2013-01-23 13:16:00,
2013-01-23 07:21:00,14.8,4.8,30.24,SW,232,5.0,5.0,64,0.00,CLR,,0.00,WeatherDisplay:10.37,2013-01-23 13:21:00,
2013-01-23 07:26:00,14.9,4.9,30.24,SW,225,9.2,9.2,64,0.00,CLR,,0.00,WeatherDisplay:10.37,2013-01-23 13:26:00,
2013-01-23 07:31:00,14.9,4.6,30.24,SW,221,6.9,6.9,63,0.00,CLR,,0.00,WeatherDisplay:10.37,2013-01-23 13:31:00,
2013-01-23 07:36:00,15.0,4.7,30.24,SW,223,3.5,3.5,63,0.00,CLR,,0.00,WeatherDisplay:10.37,2013-01-23 13:36:00,
2013-01-23 07:41:00,15.0,4.7,30.24,SW,223,2.3,2.3,63,0.00,CLR,,0.00,WeatherDisplay:10.37,2013-01-23 13:41:00,
2013-01-23 07:46:00,15.1,4.8,30.24,SW,222,0.0,0.0,63,0.00,CLR,,0.00,WeatherDisplay:10.37,2013-01-23 13:46:00,
2013-01-23 07:51:00,15.2,4.9,30.24,SW,221,4.0,4.0,63,0.00,CLR,,0.00,WeatherDisplay:10.37,2013-01-23 13:51:00,
2013-01-23 07:56:00,15.2,4.9,30.24,SW,221,4.6,5.5,63,0.00,CLR,,0.00,WeatherDisplay:10.37,2013-01-23 13:56:00,
2013-01-23 08:01:00,15.3,5.3,30.24,SW,218,5.8,5.8,64,0.00,CLR,,0.00,WeatherDisplay:10.37,2013-01-23 14:01:00,
2013-01-23 08:06:00,15.4,5.7,30.24,SW,218,3.5,3.5,65,0.00,CLR,,0.00,WeatherDisplay:10.37,2013-01-23 14:06:00,
2013-01-23 08:11:00,15.4,5.7,30.24,SW,217,5.8,5.8,65,0.00,CLR,,0.00,WeatherDisplay:10.37,2013-01-23 14:11:00,
2013-01-23 08:16:00,15.5,5.5,30.24,SSW,210,9.2,9.2,64,0.00,CLR,,0.00,WeatherDisplay:10.37,2013-01-23 14:16:00,
2013-01-23 08:21:00,15.6,5.6,30.24,SSW,213,8.1,8.1,64,0.00,CLR,,0.00,WeatherDisplay:10.37,2013-01-23 14:21:00,
2013-01-23 08:26:00,15.7,5.7,30.25,SSW,212,5.8,5.8,64,0.00,CLR,,0.00,WeatherDisplay:10.37,2013-01-23 14:26:00,
2013-01-23 08:31:00,15.8,5.8,30.24,SW,217,10.4,10.4,64,0.00,CLR,,0.00,WeatherDisplay:10.37,2013-01-23 14:31:00,
2013-01-23 08:36:00,15.7,5.7,30.24,South,191,11.5,11.5,64,0.00,CLR,,0.00,WeatherDisplay:10.37,2013-01-23 14:36:00,
2013-01-23 08:41:00,15.8,5.4,30.24,South,188,11.5,11.5,63,0.00,CLR,,0.00,WeatherDisplay:10.37,2013-01-23 14:41:00,
2013-01-23 08:46:00,15.9,5.2,30.24,SSW,207,11.5,11.5,62,0.00,CLR,,0.00,WeatherDisplay:10.37,2013-01-23 14:46:00,
2013-01-23 08:51:00,15.9,5.2,30.24,SSW,202,12.7,12.7,62,0.00,CLR,,0.00,WeatherDisplay:10.37,2013-01-23 14:51:00,
2013-01-23 08:56:00,15.9,4.8,30.24,SSW,198,12.7,12.7,61,0.00,CLR,,0.00,WeatherDisplay:10.37,2013-01-23 14:56:00,
2013-01-23 09:01:00,16.0,4.9,30.24,SW,229,13.8,13.8,61,0.00,CLR,,0.00,WeatherDisplay:10.37,2013-01-23 15:01:00,
2013-01-23 09:06:00,16.0,4.9,30.24,SSW,199,12.7,12.7,61,0.00,CLR,,0.00,WeatherDisplay:10.37,2013-01-23 15:06:00,
2013-01-23 09:11:00,16.2,5.1,30.24,SW,217,13.8,13.8,61,0.00,CLR,,0.00,WeatherDisplay:10.37,2013-01-23 15:11:00,
2013-01-23 09:16:00,16.2,5.1,30.24,SSW,207,11.5,11.5,61,0.00,CLR,,0.00,WeatherDisplay:10.37,2013-01-23 15:16:00,
2013-01-23 09:21:00,16.4,5.3,30.23,SW,219,10.4,10.4,61,0.00,CLR,,0.00,WeatherDisplay:10.37,2013-01-23 15:21:00,
2013-01-23 09:26:00,16.6,5.1,30.23,South,188,15.0,15.0,60,0.00,CLR,,0.00,WeatherDisplay:10.37,2013-01-23 15:26:00,
2013-01-23 09:31:00,16.6,5.1,30.24,SSW,210,12.7,12.7,60,0.00,CLR,,0.00,WeatherDisplay:10.37,2013-01-23 15:31:00,
2013-01-23 09:36:00,16.7,5.2,30.24,SSW,200,15.0,15.0,60,0.00,CLR,,0.00,WeatherDisplay:10.37,2013-01-23 15:36:00,
2013-01-23 09:41:00,16.9,5.4,30.24,SW,232,15.0,15.0,60,0.00,CLR,,0.00,WeatherDisplay:10.37,2013-01-23 15:41:00,
2013-01-23 09:46:00,17.0,5.5,30.24,South,178,11.5,11.5,60,0.00,CLR,,0.00,WeatherDisplay:10.37,2013-01-23 15:46:00,
2013-01-23 09:51:00,17.2,5.7,30.24,SSW,199,11.5,11.5,60,0.00,CLR,,0.00,WeatherDisplay:10.37,2013-01-23 15:51:00,
2013-01-23 09:56:00,17.3,5.4,30.25,SSW,204,6.9,6.9,59,0.00,CLR,,0.00,WeatherDisplay:10.37,2013-01-23 15:56:00,
2013-01-23 10:01:00,17.4,5.1,30.25,SSW,207,13.8,13.8,58,0.00,CLR,,0.00,WeatherDisplay:10.37,2013-01-23 16:01:00,
2013-01-23 10:06:00,17.5,5.6,30.24,SSW,205,10.4,10.4,59,0.00,CLR,,0.00,WeatherDisplay:10.37,2013-01-23 16:06:00,
2013-01-23 10:11:00,17.7,5.4,30.24,SW,220,9.2,9.2,58,0.00,CLR,,0.00,WeatherDisplay:10.37,2013-01-23 16:11:00,
2013-01-23 10:16:00,17.9,5.6,30.24,SSW,211,9.2,9.2,58,0.00,CLR,,0.00,WeatherDisplay:10.37,2013-01-23 16:16:00,
2013-01-23 10:21:00,18.1,5.8,30.23,SW,219,14.0,14.0,58,0.00,CLR,,0.00,WeatherDisplay:10.37,2013-01-23 16:21:00,
2013-01-23 10:26:00,18.2,5.9,30.23,SSW,204,11.0,11.0,58,0.00,CLR,,0.00,WeatherDisplay:10.37,2013-01-23 16:26:00,
2013-01-23 10:31:00,18.4,5.7,30.22,SSW,205,19.6,19.6,57,0.00,CLR,,0.00,WeatherDisplay:10.37,2013-01-23 16:31:00,
2013-01-23 10:36:00,18.5,5.8,30.23,SSW,200,17.3,17.3,57,0.00,CLR,,0.00,WeatherDisplay:10.37,2013-01-23 16:36:00,
2013-01-23 10:41:00,18.6,5.9,30.23,SSW,205,15.0,15.0,57,0.00,CLR,,0.00,WeatherDisplay:10.37,2013-01-23 16:41:00,
2013-01-23 10:46:00,18.7,5.6,30.22,SW,223,18.4,18.4,56,0.00,CLR,,0.00,WeatherDisplay:10.37,2013-01-23 16:46:00,
2013-01-23 10:51:00,18.6,5.5,30.21,SSW,201,15.0,15.0,56,0.00,CLR,,0.00,WeatherDisplay:10.37,2013-01-23 16:51:00,
2013-01-23 10:56:00,18.8,6.1,30.21,SSW,203,13.8,13.8,57,0.00,CLR,,0.00,WeatherDisplay:10.37,2013-01-23 16:56:00,
2013-01-23 11:01:00,18.9,6.2,30.21,SSW,192,11.5,11.5,57,0.00,CLR,,0.00,WeatherDisplay:10.37,2013-01-23 17:01:00,
2013-01-23 11:06:00,19.0,6.3,30.20,SW,235,11.5,11.5,57,0.00,CLR,,0.00,WeatherDisplay:10.37,2013-01-23 17:06:00,
2013-01-23 11:11:00,19.3,6.1,30.20,South,190,13.8,13.8,56,0.00,CLR,,0.00,WeatherDisplay:10.37,2013-01-23 17:11:00,
2013-01-23 11:16:00,19.5,6.3,30.19,SSW,206,15.0,15.0,56,0.00,CLR,,0.00,WeatherDisplay:10.37,2013-01-23 17:16:00,
2013-01-23 11:21:00,19.6,6.4,30.19,SW,217,15.0,15.0,56,0.00,CLR,,0.00,WeatherDisplay:10.37,2013-01-23 17:21:00,
2013-01-23 11:26:00,19.8,7.0,30.19,SW,215,16.1,16.1,57,0.00,CLR,,0.00,WeatherDisplay:10.37,2013-01-23 17:26:00,
2013-01-23 11:31:00,19.8,7.0,30.19,SW,219,12.7,12.7,57,0.00,CLR,,0.00,WeatherDisplay:10.37,2013-01-23 17:31:00,
2013-01-23 11:36:00,20.2,7.8,30.19,SSW,205,3.5,3.5,58,0.00,CLR,,0.00,WeatherDisplay:10.37,2013-01-23 17:36:00,
2013-01-23 11:41:00,20.5,8.0,30.18,SW,233,11.5,11.5,58,0.00,CLR,,0.00,WeatherDisplay:10.37,2013-01-23 17:41:00,
2013-01-23 11:46:00,20.8,8.3,30.18,South,188,15.0,15.0,58,0.00,CLR,,0.00,WeatherDisplay:10.37,2013-01-23 17:46:00,
2013-01-23 11:51:00,21.1,9.0,30.17,WSW,244,11.5,11.5,59,0.00,CLR,,0.00,WeatherDisplay:10.37,2013-01-23 17:51:00,
2013-01-23 11:56:00,21.3,9.2,30.17,SW,223,11.5,11.5,59,0.00,CLR,,0.00,WeatherDisplay:10.37,2013-01-23 17:56:00,
2013-01-23 12:01:00,21.3,9.2,30.17,SW,225,15.0,15.0,59,0.00,CLR,,0.00,WeatherDisplay:10.37,2013-01-23 18:01:00,
2013-01-23 12:06:00,21.3,9.2,30.16,SSW,209,15.0,15.0,59,0.00,CLR,,0.00,WeatherDisplay:10.37,2013-01-23 18:06:00,
2013-01-23 12:11:00,21.5,9.4,30.16,SW,222,11.5,11.5,59,0.00,CLR,,0.00,WeatherDisplay:10.37,2013-01-23 18:11:00,
2013-01-23 12:16:00,21.7,9.6,30.16,SW,230,11.5,11.5,59,0.00,CLR,,0.00,WeatherDisplay:10.37,2013-01-23 18:16:00,
2013-01-23 12:21:00,21.8,10.0,30.15,SSW,192,13.8,13.8,60,0.00,CLR,,0.00,WeatherDisplay:10.37,2013-01-23 18:21:00,
2013-01-23 12:26:00,21.9,10.1,30.14,WSW,238,11.5,11.5,60,0.00,CLR,,0.00,WeatherDisplay:10.37,2013-01-23 18:26:00,
2013-01-23 12:31:00,22.0,9.8,30.14,SSW,209,15.0,15.0,59,0.00,CLR,,0.00,WeatherDisplay:10.37,2013-01-23 18:31:00,
2013-01-23 12:36:00,22.2,10.4,30.14,SW,217,6.0,6.0,60,0.00,CLR,,0.00,WeatherDisplay:10.37,2013-01-23 18:36:00,
2013-01-23 12:41:00,22.2,10.0,30.13,South,170,13.8,13.8,59,0.00,CLR,,0.00,WeatherDisplay:10.37,2013-01-23 18:41:00,
2013-01-23 12:46:00,22.2,10.4,30.13,SW,223,10.4,10.4,60,0.00,CLR,,0.00,WeatherDisplay:10.37,2013-01-23 18:46:00,
2013-01-23 12:51:00,22.3,10.1,30.13,SW,215,11.5,11.5,59,0.00,CLR,,0.00,WeatherDisplay:10.37,2013-01-23 18:51:00,
2013-01-23 12:56:00,22.2,10.0,30.12,SW,223,11.5,11.5,59,0.00,CLR,,0.00,WeatherDisplay:10.37,2013-01-23 18:56:00,
2013-01-23 13:01:00,22.3,10.5,30.11,SW,214,11.5,11.5,60,0.00,CLR,,0.00,WeatherDisplay:10.37,2013-01-23 19:01:00,
2013-01-23 13:06:00,22.4,10.6,30.12,SSW,192,11.5,11.5,60,0.00,CLR,,0.00,WeatherDisplay:10.37,2013-01-23 19:06:00,
2013-01-23 13:11:00,22.5,10.7,30.11,SSW,203,13.8,13.8,60,0.00,CLR,,0.00,WeatherDisplay:10.37,2013-01-23 19:11:00,
2013-01-23 13:16:00,22.7,10.9,30.12,SSW,212,9.2,9.2,60,0.00,CLR,,0.00,WeatherDisplay:10.37,2013-01-23 19:16:00,
2013-01-23 13:21:00,22.7,10.9,30.11,SW,221,11.5,11.5,60,0.00,CLR,,0.00,WeatherDisplay:10.37,2013-01-23 19:21:00,
2013-01-23 13:26:00,22.8,11.0,30.11,SSW,211,12.7,12.7,60,0.00,CLR,,0.00,WeatherDisplay:10.37,2013-01-23 19:26:00,
2013-01-23 13:31:00,22.8,11.0,30.10,SSW,207,8.1,8.1,60,0.00,CLR,,0.00,WeatherDisplay:10.37,2013-01-23 19:31:00,
2013-01-23 13:36:00,23.0,11.2,30.11,SW,229,8.1,8.1,60,0.00,CLR,,0.00,WeatherDisplay:10.37,2013-01-23 19:36:00,
2013-01-23 13:41:00,23.4,11.5,30.11,SW,227,3.5,3.5,60,0.00,CLR,,0.00,WeatherDisplay:10.37,2013-01-23 19:41:00,
2013-01-23 13:46:00,23.4,11.2,30.10,SSW,207,10.4,10.4,59,0.00,CLR,,0.00,WeatherDisplay:10.37,2013-01-23 19:46:00,
2013-01-23 13:51:00,23.4,11.2,30.10,SW,223,10.4,10.4,59,0.00,CLR,,0.00,WeatherDisplay:10.37,2013-01-23 19:51:00,
2013-01-23 13:56:00,23.6,11.7,30.09,SW,218,10.0,10.0,60,0.00,CLR,,0.00,WeatherDisplay:10.37,2013-01-23 19:56:00,
2013-01-23 14:01:00,23.8,11.9,30.09,SSW,209,11.0,11.0,60,0.00,CLR,,0.00,WeatherDisplay:10.37,2013-01-23 20:01:00,
2013-01-23 14:06:00,23.9,11.6,30.09,SW,216,10.0,10.0,59,0.00,CLR,,0.00,WeatherDisplay:10.37,2013-01-23 20:06:00,
2013-01-23 14:11:00,24.2,12.3,30.09,SW,215,10.4,10.4,60,0.00,CLR,,0.00,WeatherDisplay:10.37,2013-01-23 20:11:00,
2013-01-23 14:16:00,24.5,12.2,30.09,SW,226,6.9,6.9,59,0.00,CLR,,0.00,WeatherDisplay:10.37,2013-01-23 20:16:00,
2013-01-23 14:21:00,24.6,12.3,30.09,SW,229,4.6,4.6,59,0.00,CLR,,0.00,WeatherDisplay:10.37,2013-01-23 20:21:00,
2013-01-23 14:26:00,24.7,12.4,30.09,SSW,212,9.2,9.2,59,0.00,CLR,,0.00,WeatherDisplay:10.37,2013-01-23 20:26:00,
2013-01-23 14:31:00,24.8,12.5,30.09,SSW,213,4.0,4.0,59,0.00,CLR,,0.00,WeatherDisplay:10.37,2013-01-23 20:31:00,
2013-01-23 14:36:00,25.1,12.8,30.09,SSW,213,4.6,4.6,59,0.00,CLR,,0.00,WeatherDisplay:10.37,2013-01-23 20:36:00,
2013-01-23 14:41:00,25.3,13.0,30.09,SW,215,4.6,4.6,59,0.00,CLR,,0.00,WeatherDisplay:10.37,2013-01-23 20:41:00,
2013-01-23 14:46:00,25.4,12.7,30.09,SW,215,6.9,6.9,58,0.00,CLR,,0.00,WeatherDisplay:10.37,2013-01-23 20:46:00,
2013-01-23 14:51:00,25.5,13.1,30.08,SW,215,1.2,1.2,59,0.00,CLR,,0.00,WeatherDisplay:10.37,2013-01-23 20:51:00,
2013-01-23 14:56:00,25.7,13.3,30.08,SW,215,1.0,4.0,59,0.00,CLR,,0.00,WeatherDisplay:10.37,2013-01-23 20:56:00,
2013-01-23 15:01:00,25.9,13.1,30.08,SW,216,5.0,5.0,58,0.00,CLR,,0.00,WeatherDisplay:10.37,2013-01-23 21:01:00,
2013-01-23 15:06:00,25.8,13.0,30.07,SW,215,3.5,3.5,58,0.00,CLR,,0.00,WeatherDisplay:10.37,2013-01-23 21:06:00,
2013-01-23 15:11:00,25.8,13.0,30.07,SW,215,3.5,3.5,58,0.00,CLR,,0.00,WeatherDisplay:10.37,2013-01-23 21:11:00,
2013-01-23 15:16:00,26.0,13.2,30.07,SW,216,3.0,3.0,58,0.00,CLR,,0.00,WeatherDisplay:10.37,2013-01-23 21:16:00,
2013-01-23 15:22:00,25.9,13.1,30.07,SW,215,4.6,4.6,58,0.00,CLR,,0.00,WeatherDisplay:10.37,2013-01-23 21:22:00,
2013-01-23 15:27:00,25.9,13.1,30.07,SW,215,3.0,3.0,58,0.00,CLR,,0.00,WeatherDisplay:10.37,2013-01-23 21:27:00,
2013-01-23 15:32:00,26.0,13.2,30.06,SW,215,4.6,4.6,58,0.00,CLR,,0.00,WeatherDisplay:10.37,2013-01-23 21:32:00,
2013-01-23 15:37:00,26.0,13.2,30.06,SW,215,1.2,0.0,58,0.00,CLR,,0.00,WeatherDisplay:10.37,2013-01-23 21:37:00,
2013-01-23 15:42:00,26.1,13.7,30.06,SW,214,3.5,3.5,59,0.00,CLR,,0.00,WeatherDisplay:10.37,2013-01-23 21:42:00,
2013-01-23 15:47:00,26.2,13.4,30.06,SW,215,3.5,3.5,58,0.00,CLR,,0.00,WeatherDisplay:10.37,2013-01-23 21:47:00,
2013-01-23 15:52:00,26.3,13.5,30.06,SW,214,3.5,3.5,58,0.00,CLR,,0.00,WeatherDisplay:10.37,2013-01-23 21:52:00,
2013-01-23 15:57:00,26.4,13.6,30.06,SW,214,3.5,3.5,58,0.00,CLR,,0.00,WeatherDisplay:10.37,2013-01-23 21:57:00,
2013-01-23 16:02:00,26.5,13.7,30.06,SW,214,3.5,3.5,58,0.00,CLR,,0.00,WeatherDisplay:10.37,2013-01-23 22:02:00,
2013-01-23 16:07:00,26.5,13.7,30.06,SW,214,2.3,2.3,58,0.00,CLR,,0.00,WeatherDisplay:10.37,2013-01-23 22:07:00,
2013-01-23 16:12:00,26.7,13.9,30.06,SW,214,1.2,1.2,58,0.00,CLR,,0.00,WeatherDisplay:10.37,2013-01-23 22:12:00,
2013-01-23 16:17:00,26.8,14.0,30.06,SW,214,3.5,3.5,58,0.00,CLR,,0.00,WeatherDisplay:10.37,2013-01-23 22:17:00,
2013-01-23 16:21:00,26.8,14.0,30.06,SW,215,0.0,0.1,58,0.00,CLR,,0.00,WeatherDisplay:10.37,2013-01-23 22:21:00,
2013-01-23 16:26:00,26.9,14.1,30.05,SW,214,3.5,3.5,58,0.00,CLR,,0.00,WeatherDisplay:10.37,2013-01-23 22:26:00,
2013-01-23 16:31:00,26.9,14.1,30.05,SW,214,1.2,1.2,58,0.00,CLR,,0.00,WeatherDisplay:10.37,2013-01-23 22:31:00,
2013-01-23 16:37:00,27.0,14.2,30.05,SW,214,0.0,0.0,58,0.00,CLR,,0.00,WeatherDisplay:10.37,2013-01-23 22:37:00,
2013-01-23 16:41:00,27.0,14.2,30.05,SW,215,0.0,0.0,58,0.00,CLR,,0.00,WeatherDisplay:10.37,2013-01-23 22:41:00,
2013-01-23 16:46:00,27.0,14.2,30.06,SW,215,0.0,0.0,58,0.00,CLR,,0.00,WeatherDisplay:10.37,2013-01-23 22:46:00,
2013-01-23 16:51:00,27.1,14.3,30.06,SW,214,3.5,3.5,58,0.00,CLR,,0.00,WeatherDisplay:10.37,2013-01-23 22:51:00,
2013-01-23 16:56:00,27.1,14.3,30.06,SSW,213,2.3,2.3,58,0.00,CLR,,0.00,WeatherDisplay:10.37,2013-01-23 22:56:00,
2013-01-23 17:02:00,27.1,14.3,30.06,SW,214,3.5,3.5,58,0.00,CLR,,0.00,WeatherDisplay:10.37,2013-01-23 23:02:00,
2013-01-23 17:07:00,27.0,14.6,30.06,SW,214,4.0,4.0,59,0.00,CLR,,0.00,WeatherDisplay:10.37,2013-01-23 23:07:00,
2013-01-23 17:12:00,26.9,14.5,30.06,SSW,201,4.0,4.0,59,0.00,CLR,,0.00,WeatherDisplay:10.37,2013-01-23 23:12:00,
2013-01-23 17:17:00,26.7,14.3,30.05,SSW,198,4.6,4.6,59,0.00,CLR,,0.00,WeatherDisplay:10.37,2013-01-23 23:17:00,
2013-01-23 17:22:00,26.6,14.6,30.06,South,185,3.5,3.5,60,0.00,CLR,,0.00,WeatherDisplay:10.37,2013-01-23 23:22:00,
2013-01-23 17:27:00,26.5,14.9,30.05,SSE,162,5.8,5.8,61,0.00,CLR,,0.00,WeatherDisplay:10.37,2013-01-23 23:27:00,
2013-01-23 17:32:00,26.3,14.7,30.06,SSE,161,5.0,5.0,61,0.00,CLR,,0.00,WeatherDisplay:10.37,2013-01-23 23:32:00,
2013-01-23 17:37:00,26.0,14.8,30.05,SSE,158,3.5,3.5,62,0.00,CLR,,0.00,WeatherDisplay:10.37,2013-01-23 23:37:00,
2013-01-23 17:42:00,25.9,14.7,30.06,SSE,158,3.5,3.5,62,0.00,CLR,,0.00,WeatherDisplay:10.37,2013-01-23 23:42:00,
2013-01-23 17:47:00,25.7,14.8,30.05,SSE,157,4.6,4.6,63,0.00,CLR,,0.00,WeatherDisplay:10.37,2013-01-23 23:47:00,
2013-01-23 17:52:00,25.5,14.6,30.05,SSE,153,5.8,5.8,63,0.00,CLR,,0.00,WeatherDisplay:10.37,2013-01-23 23:52:00,
2013-01-23 17:57:00,25.3,14.5,30.05,SSE,150,5.0,5.0,63,0.00,CLR,,0.00,WeatherDisplay:10.37,2013-01-23 23:57:00,
2013-01-23 18:02:00,25.2,14.4,30.05,SSE,149,4.6,4.6,63,0.00,CLR,,0.00,WeatherDisplay:10.37,2013-01-24 00:02:00,
2013-01-23 18:07:00,25.0,14.5,30.05,SSE,148,3.5,3.5,64,0.00,CLR,,0.00,WeatherDisplay:10.37,2013-01-24 00:07:00,
2013-01-23 18:12:00,24.9,14.4,30.05,SSE,149,3.5,3.5,64,0.00,CLR,,0.00,WeatherDisplay:10.37,2013-01-24 00:12:00,
2013-01-23 18:17:00,24.8,14.3,30.06,SSE,148,3.5,3.5,64,0.00,CLR,,0.00,WeatherDisplay:10.37,2013-01-24 00:17:00,
2013-01-23 18:22:00,24.8,14.3,30.06,SSE,148,3.0,3.0,64,0.00,CLR,,0.00,WeatherDisplay:10.37,2013-01-24 00:22:00,
2013-01-23 18:27:00,24.7,14.2,30.06,SSE,150,2.3,2.3,64,0.00,CLR,,0.00,WeatherDisplay:10.37,2013-01-24 00:27:00,
2013-01-23 18:32:00,24.7,14.2,30.06,SSE,148,1.2,0.0,64,0.00,CLR,,0.00,WeatherDisplay:10.37,2013-01-24 00:32:00,
2013-01-23 18:37:00,24.7,14.2,30.06,SSE,149,1.2,0.0,64,0.00,CLR,,0.00,WeatherDisplay:10.37,2013-01-24 00:37:00,
2013-01-23 18:42:00,24.7,14.2,30.06,SSE,149,3.5,3.5,64,0.00,CLR,,0.00,WeatherDisplay:10.37,2013-01-24 00:42:00,
2013-01-23 18:47:00,24.7,14.2,30.07,SSE,148,0.0,0.0,64,0.00,CLR,,0.00,WeatherDisplay:10.37,2013-01-24 00:47:00,
2013-01-23 18:52:00,24.7,14.6,30.07,SSE,149,2.3,2.3,65,0.00,CLR,,0.00,WeatherDisplay:10.37,2013-01-24 00:52:00,
2013-01-23 18:57:00,24.6,14.5,30.07,SSE,149,0.0,0.0,65,0.00,CLR,,0.00,WeatherDisplay:10.37,2013-01-24 00:57:00,
2013-01-23 19:02:00,24.6,14.5,30.07,SSE,149,1.2,1.2,65,0.00,CLR,,0.00,WeatherDisplay:10.37,2013-01-24 01:02:00,
2013-01-23 19:07:00,24.5,14.4,30.07,SSE,149,0.0,0.0,65,0.00,CLR,,0.00,WeatherDisplay:10.37,2013-01-24 01:07:00,
2013-01-23 19:12:00,24.5,14.8,30.07,SSE,149,0.0,0.0,66,0.00,CLR,,0.00,WeatherDisplay:10.37,2013-01-24 01:12:00,
2013-01-23 19:17:00,24.3,14.6,30.07,SSE,149,0.0,0.0,66,0.00,CLR,,0.00,WeatherDisplay:10.37,2013-01-24 01:17:00,
2013-01-23 19:22:00,24.2,14.5,30.06,SSE,150,2.3,2.3,66,0.00,CLR,,0.00,WeatherDisplay:10.37,2013-01-24 01:22:00,
2013-01-23 19:27:00,24.2,14.5,30.06,SSE,148,3.5,3.5,66,0.00,CLR,,0.00,WeatherDisplay:10.37,2013-01-24 01:27:00,
2013-01-23 19:32:00,24.1,14.4,30.06,SSE,148,3.5,3.5,66,0.00,CLR,,0.00,WeatherDisplay:10.37,2013-01-24 01:32:00,
2013-01-23 19:37:00,24.0,14.3,30.06,SSE,148,1.2,1.2,66,0.00,CLR,,0.00,WeatherDisplay:10.37,2013-01-24 01:37:00,
2013-01-23 19:42:00,24.0,14.3,30.06,SSE,148,1.0,0.0,66,0.00,CLR,,0.00,WeatherDisplay:10.37,2013-01-24 01:42:00,
2013-01-23 19:47:00,23.9,14.5,30.07,SSE,148,2.3,2.3,67,0.00,CLR,,0.00,WeatherDisplay:10.37,2013-01-24 01:47:00,
2013-01-23 19:52:00,23.9,14.9,30.07,SSE,150,0.0,0.0,68,0.00,CLR,,0.00,WeatherDisplay:10.37,2013-01-24 01:52:00,
2013-01-23 19:57:00,23.8,14.4,30.07,SSE,152,4.6,4.6,67,0.00,CLR,,0.00,WeatherDisplay:10.37,2013-01-24 01:57:00,
2013-01-23 20:02:00,23.8,14.8,30.08,SSE,155,3.5,3.5,68,0.00,CLR,,0.00,WeatherDisplay:10.37,2013-01-24 02:02:00,
2013-01-23 20:07:00,23.7,14.7,30.08,SSW,194,5.8,5.8,68,0.00,CLR,,0.00,WeatherDisplay:10.37,2013-01-24 02:07:00,
2013-01-23 20:12:00,23.5,14.5,30.08,SW,223,5.8,5.8,68,0.00,CLR,,0.00,WeatherDisplay:10.37,2013-01-24 02:12:00,
2013-01-23 20:17:00,23.4,14.7,30.08,West,263,6.9,6.9,69,0.00,CLR,,0.00,WeatherDisplay:10.37,2013-01-24 02:17:00,
2013-01-23 20:22:00,23.3,14.6,30.08,West,270,7.0,10.0,69,0.00,CLR,,0.00,WeatherDisplay:10.37,2013-01-24 02:22:00,
2013-01-23 20:27:00,23.2,14.6,30.08,WNW,287,8.0,12.0,69,0.00,CLR,,0.00,WeatherDisplay:10.37,2013-01-24 02:27:00,
2013-01-23 20:32:00,23.5,15.1,30.09,NW,313,13.8,13.8,70,0.00,CLR,,0.00,WeatherDisplay:10.37,2013-01-24 02:32:00,
2013-01-23 20:37:00,23.9,15.2,30.09,NW,305,15.0,15.0,69,0.00,CLR,,0.00,WeatherDisplay:10.37,2013-01-24 02:37:00,
2013-01-23 20:42:00,24.6,15.5,30.10,NW,319,16.1,16.1,68,0.00,CLR,,0.00,WeatherDisplay:10.37,2013-01-24 02:42:00,
2013-01-23 20:47:00,24.8,15.4,30.10,NW,321,19.6,19.6,67,0.00,CLR,,0.00,WeatherDisplay:10.37,2013-01-24 02:47:00,
2013-01-23 20:52:00,24.9,15.5,30.11,NW,313,10.4,10.4,67,0.00,CLR,,0.00,WeatherDisplay:10.37,2013-01-24 02:52:00,
2013-01-23 20:57:00,24.7,14.9,30.11,NW,314,11.5,11.5,66,0.00,CLR,,0.00,WeatherDisplay:10.37,2013-01-24 02:57:00,
2013-01-23 21:02:00,24.5,14.8,30.11,NW,317,13.0,13.0,66,0.00,CLR,,0.00,WeatherDisplay:10.37,2013-01-24 03:02:00,
2013-01-23 21:07:00,24.3,14.6,30.11,NNW,329,10.4,10.4,66,0.00,CLR,,0.00,WeatherDisplay:10.37,2013-01-24 03:07:00,
2013-01-23 21:12:00,24.1,14.4,30.11,NW,315,11.5,11.5,66,0.00,CLR,,0.00,WeatherDisplay:10.37,2013-01-24 03:12:00,
2013-01-23 21:17:00,23.9,14.2,30.12,NW,311,12.0,12.0,66,0.00,CLR,,0.00,WeatherDisplay:10.37,2013-01-24 03:17:00,
2013-01-23 21:22:00,23.6,13.9,30.12,NW,319,11.5,11.5,66,0.00,CLR,,0.00,WeatherDisplay:10.37,2013-01-24 03:22:00,
2013-01-23 21:27:00,23.4,14.0,30.12,NW,312,11.5,11.5,67,0.00,CLR,,0.00,WeatherDisplay:10.37,2013-01-24 03:27:00,
2013-01-23 21:32:00,23.2,13.9,30.12,NW,317,11.5,11.5,67,0.00,CLR,,0.00,WeatherDisplay:10.37,2013-01-24 03:32:00,
2013-01-23 21:37:00,23.0,13.7,30.13,NW,312,15.0,15.0,67,0.00,CLR,,0.00,WeatherDisplay:10.37,2013-01-24 03:37:00,
2013-01-23 21:42:00,22.8,13.5,30.12,NNW,329,15.0,15.0,67,0.00,CLR,,0.00,WeatherDisplay:10.37,2013-01-24 03:42:00,
2013-01-23 21:47:00,22.6,13.6,30.13,NW,306,13.0,13.0,68,0.00,CLR,,0.00,WeatherDisplay:10.37,2013-01-24 03:47:00,
2013-01-23 21:52:00,22.5,13.5,30.13,NW,318,15.0,15.0,68,0.00,CLR,,0.00,WeatherDisplay:10.37,2013-01-24 03:52:00,
2013-01-23 21:57:00,22.4,13.4,30.14,NW,321,10.0,10.0,68,0.00,CLR,,0.00,WeatherDisplay:10.37,2013-01-24 03:57:00,
2013-01-23 22:02:00,22.5,13.2,30.14,NNW,327,12.7,12.7,67,0.00,CLR,,0.00,WeatherDisplay:10.37,2013-01-24 04:02:00,
2013-01-23 22:07:00,22.6,13.3,30.15,WNW,302,16.0,16.0,67,0.00,CLR,,0.00,WeatherDisplay:10.37,2013-01-24 04:07:00,
2013-01-23 22:12:00,22.7,13.4,30.15,NW,309,19.6,19.6,67,0.00,CLR,,0.00,WeatherDisplay:10.37,2013-01-24 04:12:00,
2013-01-23 22:17:00,22.7,13.4,30.15,WNW,297,13.8,13.8,67,0.00,CLR,,0.00,WeatherDisplay:10.37,2013-01-24 04:17:00,
2013-01-23 22:22:00,22.6,13.3,30.16,NW,309,21.9,21.9,67,0.00,CLR,,0.00,WeatherDisplay:10.37,2013-01-24 04:22:00,
2013-01-23 22:27:00,22.5,13.2,30.16,NNW,338,24.2,24.2,67,0.00,CLR,,0.00,WeatherDisplay:10.37,2013-01-24 04:27:00,
2013-01-23 22:32:00,22.3,13.0,30.16,NW,313,20.7,20.7,67,0.00,CLR,,0.00,WeatherDisplay:10.37,2013-01-24 04:32:00,
2013-01-23 22:37:00,22.1,13.1,30.17,NNW,346,23.0,23.0,68,0.00,CLR,,0.00,WeatherDisplay:10.37,2013-01-24 04:37:00,
2013-01-23 22:42:00,21.9,13.0,30.17,NW,320,23.0,23.0,68,0.00,CLR,,0.00,WeatherDisplay:10.37,2013-01-24 04:42:00,
2013-01-23 22:47:00,21.7,13.1,30.17,NW,312,21.9,21.9,69,0.00,CLR,,0.00,WeatherDisplay:10.37,2013-01-24 04:47:00,
2013-01-23 22:52:00,21.5,13.2,30.18,NNW,331,16.1,16.1,70,0.00,CLR,,0.00,WeatherDisplay:10.37,2013-01-24 04:52:00,
2013-01-23 22:57:00,21.3,13.4,30.18,NNW,331,15.0,15.0,71,0.00,CLR,,0.00,WeatherDisplay:10.37,2013-01-24 04:57:00,
2013-01-23 23:01:00,21.2,13.3,30.18,NNW,331,16.1,16.1,71,0.00,CLR,,0.00,WeatherDisplay:10.37,2013-01-24 05:01:00,
2013-01-23 23:03:00,21.0,13.1,30.18,NNW,332,23.0,23.0,71,0.00,CLR,,0.00,WeatherDisplay:10.37,2013-01-24 05:03:00,
2013-01-23 23:08:00,20.7,12.8,30.19,WNW,299,19.0,19.0,71,0.00,CLR,,0.00,WeatherDisplay:10.37,2013-01-24 05:08:00,
2013-01-23 23:13:00,20.4,12.2,30.19,NW,309,23.0,23.0,70,0.00,CLR,,0.00,WeatherDisplay:10.37,2013-01-24 05:13:00,
2013-01-23 23:18:00,20.2,12.0,30.20,NNW,328,18.4,18.4,70,0.00,CLR,,0.00,WeatherDisplay:10.37,2013-01-24 05:18:00,
2013-01-23 23:24:00,19.9,11.7,30.20,NNW,333,26.5,26.5,70,0.00,CLR,,0.00,WeatherDisplay:10.37,2013-01-24 05:24:00,
2013-01-23 23:28:00,19.7,11.5,30.20,NNW,342,25.3,25.3,70,0.00,CLR,,0.00,WeatherDisplay:10.37,2013-01-24 05:28:00,
2013-01-23 23:34:00,19.5,11.3,30.20,WNW,302,20.7,20.7,70,0.00,CLR,,0.00,WeatherDisplay:10.37,2013-01-24 05:34:00,
2013-01-23 23:38:00,19.2,11.3,30.21,NW,312,18.4,18.4,71,0.00,CLR,,0.00,WeatherDisplay:10.37,2013-01-24 05:38:00,
2013-01-23 23:44:00,19.0,11.1,30.21,NNW,330,18.4,18.4,71,0.00,CLR,,0.00,WeatherDisplay:10.37,2013-01-24 05:44:00,
2013-01-23 23:49:00,18.8,11.3,30.21,NNW,333,23.0,23.0,72,0.00,CLR,,0.00,WeatherDisplay:10.37,2013-01-24 05:49:00,
2013-01-23 23:54:00,18.6,11.4,30.22,NW,324,19.6,19.6,73,0.00,CLR,,0.00,WeatherDisplay:10.37,2013-01-24 05:54:00,
2013-01-23 23:59:00,18.5,11.3,30.22,NW,309,18.0,18.0,73,0.00,CLR,,0.00,WeatherDisplay:10.37,2013-01-24 05:59:00,